Simultaneous Nadir Overpasses (SNOs) Predictions

Prediction of SNOs between LANDSAT-8 and METOP-A Satellite Orbit:

Table of predicted SNOs for the next 14.0 days since TLE Epoch: 11/4/2017
Index Date (LANDSAT-8) Time (LANDSAT-8) Lat,Lon (LANDSAT-8) SZA (LANDSAT-8 ) Date (METOP-A) Time (METOP-A) Lat,Lon (METOP-A) SZA (METOP-A ) Distance(km) Time Diff (sec)
1 11/05/2017 12:46:48 -81.26,-149.66 80.35 11/05/2017 12:45:52 -81.26,-149.46 80.36 3.28 56
2 11/05/2017 13:36:14 81.26, 18.11 99.68 11/05/2017 13:36:32 81.27, 18.22 99.70 2.05 18
3 11/08/2017 08:21:03 -81.25, -83.31 79.55 11/08/2017 08:20:12 -81.25, -83.49 79.59 2.95 51
4 11/08/2017 09:10:28 81.28, 84.80 100.54 11/08/2017 09:10:50 81.28, 84.93 100.56 2.24 22
5 11/11/2017 03:55:16 -81.26, -16.64 78.73 11/11/2017 03:54:29 -81.26, -16.76 78.77 2.18 47
6 11/11/2017 04:44:42 81.27, 151.06 101.29 11/11/2017 04:45:08 81.27, 151.23 101.33 2.82 26
7 11/13/2017 23:29:31 -81.25, 49.61 78.02 11/13/2017 23:28:48 -81.25, 49.55 78.04 1.02 43
8 11/14/2017 00:18:56 81.28,-142.34 102.06 11/14/2017 00:19:27 81.27,-142.50 102.05 2.88 31
9 11/16/2017 19:03:45 -81.26, 116.18 77.30 11/16/2017 19:03:06 -81.26, 116.22 77.31 0.65 39




NCC Satellite Simultaneous Nadir Overpasses (SNOs) Prediction Service
